Weather History for Point Mugu, CA

Change the Weather History Date:

Tuesday, November 1, 2011

  Actual Average Record
Temperature  
Mean Temperature 55 °F -  
Max Temperature 72 °F 66 °F 97 °F (1997)
Min Temperature 50 °F 48 °F 46 °F (2000)
Degree Days  
Heating Degree Days 10    
Growing Degree Days 5 (Base 50)    
Moisture  
Dew Point 53 °F    
Average Humidity 91    
Maximum Humidity 100    
Minimum Humidity 80    
Precipitation  
Precipitation 0.00 in - - ()
Sea Level Pressure  
Sea Level Pressure 29.95 in    
Wind  
Wind Speed 3 mph (ESE)    
Max Wind Speed 9 mph    
Max Gust Speed -    
Visibility 4 miles    
Events      
Averages and records for this station are not official NWS values.
T = Trace of Precipitation, MM = Missing Value Source: NWS Daily Summary

Daily Weather History Graph

Daily Weather History Graph

Search for Another Location

Airport:

Trip Planner

Search our weather history database for the weather conditions in past years. The results will help you decide how hot, cold, wet, or windy it might be!

Date:

Astronomy

Nov. 01, 2011 Rise Set
Actual Time 7:16 AM PDT 6:03 PM PDT
Civil Twilight 6:50 AM PDT 6:29 PM PDT
Nautical Twilight 6:20 AM PDT 6:59 PM PDT
Astronomical Twilight 5:51 AM PDT 7:28 PM PDT
Moon 1:02 PM PDT (11/1) 11:52 PM PDT (11/1)
Length of Visible Light 11h 39m
Length of Day
10h 47m
Waxing Crescent, 41% of the Moon is Illuminated
Nov 1
Waxing Crescent
Nov 2
First Quarter
Nov 10
Full
Nov 18
Last Quarter
Nov 24
New

Hourly Weather History & Observations

Time (PDT) Temp. Dew Point Humidity Pressure Visibility Wind Dir Wind Speed Gust Speed Precip Events Conditions
12:01 AM 53.6 °F 53.6 °F 100% 29.94 in 3.0 mi SE 3.5 mph - N/A   Overcast
12:54 AM 55.0 °F 54.0 °F 96% 29.95 in 4.0 mi SSE 5.8 mph - N/A   Overcast
1:10 AM 55.4 °F 53.6 °F 94% 29.94 in 5.0 mi Calm Calm - N/A   Overcast
1:54 AM 53.1 °F 53.1 °F 100% 29.95 in 4.0 mi SSE 3.5 mph - N/A   Overcast
2:54 AM 55.0 °F 53.1 °F 93% 29.94 in 4.0 mi Calm Calm - N/A   Overcast
3:54 AM 55.0 °F 53.1 °F 93% 29.94 in 5.0 mi East 3.5 mph - N/A   Overcast
4:01 AM - - N/A% - - North - - N/A   Unknown
4:47 AM 53.6 °F 53.6 °F 100% 29.92 in 3.0 mi East 4.6 mph - N/A   Overcast
4:54 AM 54.0 °F 53.1 °F 97% 29.93 in 3.0 mi ENE 3.5 mph - N/A   Overcast
5:52 AM 53.6 °F 53.6 °F 100% 29.93 in 4.0 mi East 4.6 mph - N/A   Overcast
5:54 AM 53.1 °F 53.1 °F 100% 29.94 in 4.0 mi East 3.5 mph - N/A   Overcast
6:54 AM 53.1 °F 52.0 °F 96% 29.94 in 2.0 mi ENE 4.6 mph - N/A   Overcast
7:54 AM 53.1 °F 52.0 °F 96% 29.96 in 2.0 mi ENE 5.8 mph - N/A   Overcast
8:15 AM - - N/A% - - North - - N/A   Unknown
8:54 AM 55.0 °F 52.0 °F 89% 29.97 in 2.0 mi NE 5.8 mph - N/A   Overcast
9:54 AM 55.9 °F 52.0 °F 87% 29.96 in 2.0 mi Calm Calm - N/A   Overcast
10:54 AM 57.0 °F 52.0 °F 83% 29.97 in 2.0 mi Calm Calm - N/A   Haze
11:01 AM 57.2 °F 51.8 °F 82% 29.97 in 3.0 mi Calm Calm - N/A   Haze
11:54 AM 57.9 °F 52.0 °F 81% 29.97 in 3.0 mi West 5.8 mph - N/A   Haze
12:54 PM 57.9 °F 53.1 °F 84% 29.95 in 3.0 mi SW 5.8 mph - N/A   Haze
1:54 PM 59.0 °F 53.1 °F 81% 29.93 in 3.0 mi WSW 5.8 mph - N/A   Haze
2:54 PM 59.0 °F 54.0 °F 83% 29.92 in 3.0 mi WSW 5.8 mph - N/A   Haze
3:54 PM 60.1 °F 54.0 °F 80% 29.91 in 4.0 mi WSW 4.6 mph - N/A   Haze
4:54 PM 60.1 °F 54.0 °F 80% 29.92 in 5.0 mi Variable 3.5 mph - N/A   Haze
5:54 PM 57.9 °F 54.0 °F 87% 29.93 in 5.0 mi Calm Calm - N/A   Partly Cloudy
6:54 PM 55.0 °F 53.1 °F 93% 29.94 in 4.0 mi Calm Calm - N/A   Partly Cloudy
7:54 PM 55.0 °F 53.1 °F 93% 29.95 in 4.0 mi Calm Calm - N/A   Partly Cloudy
8:54 PM 52.0 °F 52.0 °F 100% 29.95 in 4.0 mi NE 3.5 mph - N/A   Partly Cloudy
9:54 PM 50.0 °F 48.9 °F 96% 29.97 in 4.0 mi Calm Calm - N/A   Partly Cloudy
10:54 PM 55.9 °F 54.0 °F 93% 29.97 in 5.0 mi SSE 9.2 mph - N/A   Partly Cloudy
11:54 PM 55.9 °F 53.1 °F 90% 29.97 in 5.0 mi SSE 4.6 mph - N/A   Clear